Guadalupe Pass, TX

3:21 AM MST on November 19, 2017 (GMT -0700)
Guadalupe Pass

Weather History for KGDP - May, 2013

Change the Weather History Date:

Saturday, May 18, 2013

  Actual Average Record
Temperature  
Mean Temperature 74 °F -  
Max Temperature 87 °F 80 °F 96 °F (2003)
Min Temperature 62 °F 56 °F 43 °F (2016)
Cooling Degree Days 9    
Growing Degree Days 24 (Base 50)    
Moisture  
Dew Point 16 °F    
Average Humidity 12    
Maximum Humidity 18    
Minimum Humidity 7    
Precipitation  
Precipitation 0.00 in - - ()
Sea Level Pressure  
Sea Level Pressure 29.76 in    
Wind  
Wind Speed 16 mph (SW)    
Max Wind Speed 41 mph    
Max Gust Speed 51 mph    
Visibility 8 miles    
Events      
Averages and records for this station are not official NWS values.
T = Trace of Precipitation, MM = Missing Value Source: NWS Daily Summary

Daily Weather History Graph

Daily Weather History Graph

Search for Another Location

Airport or City:

Trip Planner

Search our weather history database for the weather conditions in past years. The results will help you decide how hot, cold, wet, or windy it might be!

Date:

Astronomy

May. 18, 2013 Rise Set
Actual Time 6:00 AM MDT 7:51 PM MDT
Civil Twilight 5:33 AM MDT 8:18 PM MDT
Nautical Twilight 5:00 AM MDT 8:51 PM MDT
Astronomical Twilight 4:25 AM MDT 9:25 PM MDT
Moon 1:21 PM MDT (5/18) 1:28 AM MDT (5/18)
Length of Visible Light 14h 45m
Length of Day
13h 51m
First Quarter, 56% of the Moon is Illuminated
May 18
First Quarter
May 24
Full
May 31
Last Quarter
Jun 8
New
Jun 16
First Quarter

Hourly Weather History & Observations

Time (MDT) Temp. Dew Point Humidity Pressure Visibility Wind Dir Wind Speed Gust Speed Precip Events Conditions
12:51 AM 73.0 °F 18.0 °F 12% 29.73 in 8.0 mi South 8.1 mph - N/A   Clear
1:51 AM 70.0 °F 18.0 °F 14% 29.74 in 8.0 mi West 13.8 mph - N/A   Clear
2:51 AM 69.1 °F 18.0 °F 14% 29.75 in 8.0 mi WSW 8.1 mph - N/A   Clear
3:51 AM 66.0 °F 15.1 °F 14% 29.75 in 8.0 mi SSW 9.2 mph - N/A   Clear
4:51 AM 63.0 °F 17.1 °F 17% 29.76 in 8.0 mi SSW 11.5 mph - N/A   Clear
5:51 AM 63.0 °F 16.0 °F 16% 29.78 in 8.0 mi SSW 13.8 mph - N/A   Clear
6:51 AM 62.1 °F 16.0 °F 17% 29.80 in 7.0 mi SSW 9.2 mph - N/A   Clear
7:51 AM 62.1 °F 18.0 °F 18% 29.84 in 7.0 mi South 13.8 mph - N/A   Clear
8:51 AM 66.9 °F 19.0 °F 16% 29.85 in 7.0 mi SW 13.8 mph - N/A   Clear
9:51 AM 73.9 °F 18.0 °F 12% 29.84 in 7.0 mi West 12.7 mph - N/A   Clear
10:51 AM 81.0 °F 19.0 °F 10% 29.81 in 8.0 mi WSW 18.4 mph 27.6 mph N/A   Clear
11:51 AM 82.9 °F 19.9 °F 10% 29.79 in 8.0 mi WSW 23.0 mph 31.1 mph N/A   Clear
12:51 PM 86.0 °F 21.0 °F 9% 29.75 in 8.0 mi WSW 24.2 mph 36.8 mph N/A   Clear
1:51 PM 84.9 °F 19.0 °F 9% 29.73 in 8.0 mi WSW 24.2 mph 43.7 mph N/A   Clear
2:51 PM 86.0 °F 19.9 °F 9% 29.71 in 8.0 mi WSW 31.1 mph 46.0 mph N/A   Clear
3:51 PM 84.9 °F 12.9 °F 7% 29.70 in 8.0 mi SW 23.0 mph 46.0 mph N/A   Clear
4:59 PM 84.0 °F 15.1 °F 8% 29.94 in 7.0 mi WSW 41.4 mph 50.6 mph N/A   Squalls
5:51 PM 81.0 °F 15.1 °F 8% 29.70 in 8.0 mi SW 24.2 mph 47.2 mph N/A   Clear
8:51 PM 73.9 °F 16.0 °F 11% 29.71 in 9.0 mi WSW 27.6 mph 36.8 mph N/A   Clear
9:51 PM 73.0 °F 8.1 °F 8% 29.71 in 8.0 mi WSW 26.5 mph 33.4 mph N/A   Clear
10:51 PM 71.1 °F 9.0 °F 9% 29.72 in 8.0 mi WSW 24.2 mph - N/A   Clear
11:51 PM 68.0 °F 10.9 °F 11% 29.72 in 8.0 mi WSW 23.0 mph - N/A   Clear